Lone Rock, WI

2:09 PM CDT on May 22, 2017 (GMT -0500)
Tri-County Regional

Weather History for KLNR - November, 2011

Change the Weather History Date:

Tuesday, November 1, 2011

  Actual Average Record
Temperature  
Mean Temperature 48 °F -  
Max Temperature 64 °F 50 °F 73 °F (2000)
Min Temperature 32 °F 33 °F 17 °F (2006)
Degree Days  
Heating Degree Days 17    
Moisture  
Dew Point 38 °F    
Average Humidity 66    
Maximum Humidity 89    
Minimum Humidity 45    
Precipitation  
Precipitation 0.00 in - - ()
Sea Level Pressure  
Sea Level Pressure 29.98 in    
Wind  
Wind Speed 8 mph (ESE)    
Max Wind Speed 12 mph    
Max Gust Speed 18 mph    
Visibility 9 miles    
Events      
Averages and records for this station are not official NWS values.
T = Trace of Precipitation, MM = Missing Value Source: NWS Daily Summary

Daily Weather History Graph

Daily Weather History Graph

Search for Another Location

Airport or City:

Trip Planner

Search our weather history database for the weather conditions in past years. The results will help you decide how hot, cold, wet, or windy it might be!

Date:

Astronomy

Nov. 01, 2011 Rise Set
Actual Time 7:35 AM CDT 5:52 PM CDT
Civil Twilight 7:05 AM CDT 6:22 PM CDT
Nautical Twilight 6:32 AM CDT 6:55 PM CDT
Astronomical Twilight 5:58 AM CDT 7:28 PM CDT
Moon 1:23 PM CDT (11/1) 11:34 PM CDT (11/1)
Length of Visible Light 11h 16m
Length of Day
10h 17m
Waxing Crescent, 40% of the Moon is Illuminated
Nov 1
Waxing Crescent
Nov 2
First Quarter
Nov 10
Full
Nov 18
Last Quarter
Nov 25
New

Hourly Weather History & Observations

Time (CDT) Temp. Windchill Dew Point Humidity Pressure Visibility Wind Dir Wind Speed Gust Speed Precip Events Conditions
12:56 AM 34.0 °F 28.0 °F 30.0 °F 85% 30.09 in 7.0 mi East 6.9 mph - N/A   Clear
1:56 AM 32.0 °F 25.6 °F 28.9 °F 88% 30.09 in 6.0 mi East 6.9 mph - N/A   Clear
2:56 AM 35.1 °F 30.1 °F 32.0 °F 89% 30.07 in 6.0 mi East 5.8 mph - N/A   Clear
3:56 AM 36.0 °F 29.6 °F 32.0 °F 86% 30.06 in 6.0 mi East 8.1 mph - N/A   Clear
4:56 AM 36.0 °F 30.3 °F 32.0 °F 86% 30.06 in 7.0 mi East 6.9 mph - N/A   Clear
5:56 AM 36.0 °F 29.0 °F 32.0 °F 86% 30.06 in 8.0 mi East 9.2 mph - N/A   Clear
8:56 AM 42.1 °F 37.1 °F 34.0 °F 73% 30.04 in 9.0 mi East 8.1 mph - N/A   Clear
9:56 AM 46.9 °F - 34.0 °F 61% 30.02 in 10.0 mi SE 9.2 mph - N/A   Clear
10:56 AM 53.1 °F - 35.1 °F 50% 30.01 in 10.0 mi South 11.5 mph 18.4 mph N/A   Clear
12:56 PM 59.0 °F - 39.9 °F 49% 29.95 in 10.0 mi SSW 10.4 mph - N/A   Clear
1:56 PM 62.1 °F - 42.1 °F 48% 29.92 in 10.0 mi South 8.1 mph - N/A   Clear
2:56 PM 64.9 °F - 43.0 °F 45% 29.90 in 10.0 mi South 11.5 mph - N/A   Clear
4:56 PM 64.9 °F - 44.1 °F 47% 29.90 in 10.0 mi South 8.1 mph - N/A   Clear
5:56 PM 55.9 °F - 43.0 °F 62% 29.90 in 10.0 mi NE 4.6 mph - N/A   Clear
7:56 PM 50.0 °F - 43.0 °F 77% 29.93 in 10.0 mi East 3.5 mph - N/A   Clear
8:56 PM 57.0 °F - 45.0 °F 64% 29.93 in 10.0 mi ENE 5.8 mph - N/A   Overcast
9:56 PM 57.9 °F - 45.0 °F 62% 29.92 in 10.0 mi ENE 4.6 mph - N/A   Overcast
10:56 PM 62.1 °F - 43.0 °F 50% 29.91 in 10.0 mi South 10.4 mph - N/A   Overcast
11:56 PM 61.0 °F - 42.1 °F 50% 29.92 in 10.0 mi SSW 6.9 mph - N/A   Overcast